Regional Weather Roundup
Issued by NWS

Home | Current Version | Previous Version | Text Only | Print | Product List | Glossary On
Versions: 1 2 3 4 5 6 7 8 9 10 11 12 13 14 15 16 17 18 19 20 21 22 23 24 25 26 27 28 29 30 31 32 33 34 35 36 37 38 39 40 41 42 43 44 45 46 47 48 49 50
000
ASUS42 KKEY 060810
RWRKEY

FLORIDA REGIONAL WEATHER ROUNDUP FOR THE FLORIDA KEYS
NATIONAL WEATHER SERVICE KEY WEST FLORIDA
400 AM EDT WED MAY 06 2015

...SOUTH FLORIDA AND THE KEYS...

CITY           SKY/WX    TMP DP  RH WIND       PRES   REMARKS
FORT MYERS     PTCLDY    70  67  90 NE8       30.03F
SW REGIONAL AP PTCLDY    69  66  90 N6        30.04F
NAPLES         PTCLDY    70  66  87 N7        30.02F
MIAMI          CLOUDY    70  67  90 NW5       29.99F
WEST KENDALL   CLOUDY    66  66 100 W6        30.00F
HOMESTEAD      CLOUDY    68  65  91 NW8       29.99F
MARATHON       CLEAR     74  70  87 N7        29.99F
BOCA CHICA NAS CLEAR     72  69  90 NE5       30.01F
KEY WEST INTL  CLEAR     72  70  93 NE3       30.01F

...INTERNATIONAL WEATHER...

CITY           SKY/WX    TMP DP  RH WIND       PRES   REMARKS
NASSAU BAHAMAS MOCLDY    73  70  88 CALM      30.00S
CANCUN MEXICO  CLEAR     79  72  78 E10       29.94F
COZUMEL MEXICO CLEAR     73  72  94 CALM      29.94F

ADJACENT COASTAL WATERS...

STATION/POSITION TIME  SKY/WX   TEMP    WIND        PRES    WAVE
                                AIR SEA DIR/SP/G            HT/PER
                 (UTC)          (F)     (DEG/KT/KT) (MB)    (FT/S)
PULASKI SHOAL LI 0700            77      70/ 10/ 10 1016.3F
SAND KEY         0750            75      50/ 12/ 14 1016.2F
SOMBRERO KEY     0800            74      10/ 10/ 10 1016.1F
LONG KEY         0700            74 76   10/  8/  9 1016.9F
MOLASSES REEF    0800            73 77  310/ 11/ 12 1015.2F
FOWEY ROCKS      NOT AVBL

$$



USA.gov is the U.S. government's official web portal to all federal, state and local government web resources and services.